Location: Central Falls
(41.8900°N, 71.3929°W)
Time: 11:15:17
(UTC+00:00)

A-11 Canister half - Pass Details

Date: 11 December 2023
Orbit: 1526 x 1682 km, 47.3° (Epoch: 20 February)

Event Time Altitude Azimuth Distance (km) Brightness Sun altitude
Rises 21:48:46 0° 230° (SW) 4,888 13.5 -6.5°
Reaches altitude 10° 21:51:54 10° 228° (SW) 3,915 12.6 -7.0°
Maximum altitude 22:01:56 72° 146° (SSE) 1,750 9.3 -8.7°
Enters shadow 22:11:29 12° 66° (ENE) 3,775 10.4 -10.3°
Drops below altitude 10° 22:12:00 10° 65° (ENE) 3,935 - -10.4°
Sets 22:15:09 0° 64° (ENE) 4,914 - -11.0°
